EDW001 LIRF-LSZH

Flight info

Callsign EDW001
Flight time N/A
Altitude 38000
Route SOVAN DCT AMTEL DCT PEPAG DCT CANNE Z651 DETRI/N0429F300 Z651 KELIP
Aircraft A320/M-SDE3FGHIRWY/LB1

Departure

Time 2026-05-07 23:20
Airport Rome–Fiumicino Leonardo da Vinci International Airport (LIRF)

Arrival

Time N/A
Airport Zürich Airport (LSZH)
Time Latitude Longitude Altitude Speed Heading
2026-05-07 22:39 41.79755 12.25505 15 ft 0 kts 115°
2026-05-07 23:09 41.79755 12.25504 15 ft 1 kts 115°
2026-05-07 23:09 41.79765 12.25477 16 ft 2 kts 115°
2026-05-07 23:10 41.79772 12.25449 16 ft 4 kts 78°
2026-05-07 23:10 41.79759 12.25425 19 ft 3 kts 25°
2026-05-07 23:10 41.79770 12.25431 17 ft 4 kts 25°
2026-05-07 23:10 41.79787 12.25442 18 ft 0 kts 25°
2026-05-07 23:12 41.79788 12.25442 18 ft 0 kts 25°
2026-05-07 23:13 41.79824 12.25465 15 ft 10 kts 25°
2026-05-07 23:13 41.79892 12.25509 17 ft 11 kts 25°
2026-05-07 23:13 41.79965 12.25555 15 ft 12 kts 25°
2026-05-07 23:13 41.79999 12.25610 15 ft 7 kts 99°
2026-05-07 23:14 41.79981 12.25665 17 ft 6 kts 116°
2026-05-07 23:14 41.79963 12.25713 16 ft 5 kts 116°
2026-05-07 23:14 41.79937 12.25785 15 ft 15 kts 116°
2026-05-07 23:14 41.79936 12.25863 17 ft 8 kts 30°
2026-05-07 23:15 41.79988 12.25893 17 ft 11 kts 24°
2026-05-07 23:15 41.80074 12.25945 15 ft 15 kts 25°
2026-05-07 23:15 41.80177 12.26009 17 ft 17 kts 25°
2026-05-07 23:15 41.80289 12.26081 15 ft 19 kts 25°
2026-05-07 23:16 41.80412 12.26157 15 ft 20 kts 25°
2026-05-07 23:16 41.80514 12.26214 15 ft 14 kts 37°
2026-05-07 23:16 41.80554 12.26329 15 ft 14 kts 69°
2026-05-07 23:16 41.80586 12.26444 15 ft 13 kts 69°
2026-05-07 23:17 41.80626 12.26587 15 ft 21 kts 70°
2026-05-07 23:17 41.80676 12.26772 15 ft 22 kts 70°
2026-05-07 23:17 41.80725 12.26949 16 ft 15 kts 69°
2026-05-07 23:17 41.80751 12.27029 17 ft 8 kts 54°
2026-05-07 23:18 41.80792 12.27048 15 ft 6 kts 354°
2026-05-07 23:18 41.80829 12.27034 16 ft 7 kts 341°
2026-05-07 23:18 41.80896 12.27002 16 ft 12 kts 339°
2026-05-07 23:18 41.80962 12.26964 14 ft 8 kts 319°
2026-05-07 23:19 41.80959 12.26925 13 ft 0 kts 250°
2026-05-07 23:19 41.80958 12.26924 13 ft 3 kts 250°
2026-05-07 23:19 41.80865 12.26583 15 ft 76 kts 250°
2026-05-07 23:19 41.80608 12.25656 16 ft 134 kts 249°
2026-05-07 23:20 41.80245 12.24286 113 ft 171 kts 252°
2026-05-07 23:20 41.79826 12.22790 742 ft 172 kts 251°
2026-05-07 23:20 41.79393 12.21280 1370 ft 179 kts 251°
2026-05-07 23:20 41.79184 12.19549 1642 ft 200 kts 284°
2026-05-07 23:21 41.79841 12.17881 2238 ft 209 kts 314°
2026-05-07 23:21 41.80795 12.16407 2925 ft 210 kts 313°
2026-05-07 23:21 41.81754 12.14874 3578 ft 217 kts 310°
2026-05-07 23:21 41.82695 12.13299 4403 ft 216 kts 309°
2026-05-07 23:22 41.83625 12.11685 5121 ft 222 kts 306°
2026-05-07 23:22 41.84307 12.09831 5831 ft 225 kts 286°
2026-05-07 23:22 41.84613 12.07605 6023 ft 257 kts 275°
2026-05-07 23:22 41.84737 12.05948 6323 ft 272 kts 274°
2026-05-07 23:23 41.84904 12.03324 6782 ft 292 kts 272°
2026-05-07 23:23 41.85028 12.00526 7261 ft 309 kts 271°
2026-05-07 23:23 41.85206 11.97652 8263 ft 302 kts 275°
2026-05-07 23:23 41.85470 11.94925 9539 ft 292 kts 276°
2026-05-07 23:24 41.85881 11.92248 10323 ft 300 kts 288°
2026-05-07 23:24 41.86924 11.89706 10557 ft 325 kts 308°